Flag for Germany Weather past 2 weeks in Meppen, Lower Saxony, Germany

Now
54 °F

Cool.


Feels Like: 54 °F
Forecast: 39 / 66 °F
Wind: 2 mph from Northwest

Location: Meppen

Current Time: May 23, 2015 at 10:50:03 AM

Latest Report: May 23, 2015 at 10:00 AM


Visibility: 2 mi

Pressure: 30.19 "Hg

Humidity: 89%

Dew point: 51 °F

Location of MeppenLocation

Historic Weather in Meppen — Graph

°F

Meppen temperature yesterday

Maximum temperature yesterday: 67 °F (at 3:00 PM)
Minimum temperature yesterday: 42 °F (at 3:00 AM)
Average temperature yesterday: 57 °F

Past Weeks' High & Low Weather Summary

 TemperatureHumidityPressure
High77 °F (May 11, 4:00 PM)94% (May 12, 4:00 AM)30.34 "Hg (May 12, 4:00 AM)
Low35 °F (May 16, 4:00 AM)30% (May 11, 4:00 PM)29.59 "Hg (May 19, 4:00 AM)
Average53 °F68%30.05 "Hg
* Reported May 8 9:00 AM — May 23 9:00 AM, Meppen, Weather by CustomWeather, © 2015

Note: Actual official high and low records may vary slightly from our data, if they occured in-between our weather recording intervals... More about our weather records

Advertising

Meppen weather history for previous 24 hours

 ConditionsComfort  
Time TempWeatherWind HumidityBarometerVisibility
9:00 AM
Sat, May 23
56 °FCool.2 mph78%30.17 "Hg4 mi
8:00 AM56 °FCool.2 mph80%30.16 "Hg4 mi
7:00 AM54 °FCool.1 mph88%30.16 "Hg4 mi
6:00 AM51 °FCool.1 mph89%30.15 "Hg4 mi
4:00 AM55 °FCool.1 mph79%30.17 "Hg5 mi
3:00 AM55 °FCool.2 mph81%30.18 "Hg5 mi
2:00 AMN/APassing clouds.6 mphN/AN/A2 mi
1:00 AM56 °FCool.1 mph79%30.19 "Hg5 mi
12:00 AM57 °FCool.N/A73%30.20 "Hg5 mi
10:00 PM
Fri, May 22
61 °FCool.2 mph64%30.20 "Hg5 mi
9:00 PM62 °FCool.1 mph61%30.19 "Hg6 mi
7:00 PM65 °FMild.3 mph47%30.19 "Hg6 mi
6:00 PM66 °FMild.3 mph45%30.20 "Hg6 mi
5:00 PMN/APassing clouds.5 mphN/AN/A17 mi
4:00 PM66 °FMild.5 mph41%30.22 "Hg6 mi
3:00 PM67 °FMild.6 mph40%30.23 "Hg6 mi
2:00 PM66 °FMild.6 mph44%30.24 "Hg6 mi
1:00 PM65 °FScattered clouds.5 mph48%30.26 "Hg22 mi
12:00 PM64 °FPartly sunny.5 mph51%30.27 "Hg22 mi
10:00 AMN/APassing clouds.6 mphN/AN/A3 mi
Weather by CustomWeather, © 2015

See weather overviewHow to use our weather pages